Time,TemperatureF,DewpointF,PressureIn,WindDirection,WindDirectionDegrees,WindSpeedMPH,WindSpeedGustMPH,Humidity,HourlyPrecipIn,Conditions,Clouds,dailyrainin,SoftwareType,DateUTC
2013-04-16 00:02:00,33.0,32.0,-100.00,WNW,290,10.0,14.0,99,0.00,,,0.00,,2013-04-16 05:02:00,
2013-04-16 00:12:00,33.0,32.0,-100.00,WNW,295,12.0,16.0,99,0.00,,,0.00,,2013-04-16 05:12:00,
2013-04-16 00:22:00,33.0,32.0,-100.00,WNW,295,11.0,15.0,99,0.00,,,0.00,,2013-04-16 05:22:00,
2013-04-16 00:32:00,33.0,32.0,-100.00,WNW,300,11.0,15.0,99,0.00,,,0.00,,2013-04-16 05:32:00,
2013-04-16 00:42:00,32.0,32.0,-100.00,WNW,300,10.0,14.0,99,0.00,,,0.00,,2013-04-16 05:42:00,
2013-04-16 00:52:00,32.0,32.0,-100.00,NW,305,11.0,14.0,99,0.00,,,0.00,,2013-04-16 05:52:00,
2013-04-16 01:02:00,32.0,32.0,-100.00,NW,305,11.0,15.0,99,0.00,,,0.00,,2013-04-16 06:02:00,
2013-04-16 01:12:00,32.0,32.0,-100.00,WNW,300,11.0,14.0,99,0.00,,,0.00,,2013-04-16 06:12:00,
2013-04-16 01:22:00,32.0,32.0,-100.00,WNW,295,9.0,15.0,99,0.00,,,0.00,,2013-04-16 06:22:00,
2013-04-16 01:32:00,32.0,32.0,-100.00,NW,305,11.0,13.0,99,0.00,,,0.00,,2013-04-16 06:32:00,
2013-04-16 01:42:00,32.0,32.0,-100.00,NW,305,8.0,12.0,99,0.00,,,0.00,,2013-04-16 06:42:00,
2013-04-16 01:52:00,32.0,32.0,-100.00,NW,310,9.0,11.0,99,0.00,,,0.00,,2013-04-16 06:52:00,
2013-04-16 02:02:00,32.0,32.0,-100.00,NW,320,12.0,14.0,99,0.00,,,0.00,,2013-04-16 07:02:00,
2013-04-16 02:12:00,32.0,32.0,-100.00,NW,305,11.0,14.0,99,0.00,,,0.00,,2013-04-16 07:12:00,
2013-04-16 02:22:00,32.0,32.0,-100.00,NW,310,11.0,14.0,99,0.00,,,0.00,,2013-04-16 07:22:00,
2013-04-16 02:32:00,32.0,32.0,-100.00,WNW,300,11.0,14.0,99,0.00,,,0.00,,2013-04-16 07:32:00,
2013-04-16 02:42:00,32.0,32.0,-100.00,NW,305,9.0,12.0,99,0.00,,,0.00,,2013-04-16 07:42:00,
2013-04-16 02:53:00,32.0,32.0,-100.00,NW,315,11.0,12.0,99,0.00,,,0.00,,2013-04-16 07:53:00,
2013-04-16 03:02:00,32.0,32.0,-100.00,NW,310,9.0,11.0,99,0.00,,,0.00,,2013-04-16 08:02:00,
2013-04-16 03:12:00,32.0,32.0,-100.00,NW,310,9.0,13.0,99,0.00,,,0.00,,2013-04-16 08:12:00,
2013-04-16 03:22:00,32.0,32.0,-100.00,NW,310,9.0,12.0,99,0.00,,,0.00,,2013-04-16 08:22:00,
2013-04-16 06:52:00,31.0,30.0,-100.00,NNW,330,5.0,7.0,99,0.00,,,0.00,,2013-04-16 11:52:00,
2013-04-16 07:02:00,31.0,30.0,-100.00,NNW,330,4.0,7.0,99,0.00,,,0.00,,2013-04-16 12:02:00,
2013-04-16 07:12:00,31.0,30.0,-100.00,NW,325,4.0,7.0,99,0.00,,,0.00,,2013-04-16 12:12:00,
2013-04-16 07:22:00,31.0,30.0,-100.00,NNW,335,4.0,7.0,99,0.00,,,0.00,,2013-04-16 12:22:00,
2013-04-16 08:12:00,32.0,30.0,-100.00,North,355,8.0,14.0,97,0.00,,,0.00,,2013-04-16 13:12:00,
2013-04-16 08:22:00,32.0,30.0,-100.00,North,355,7.0,10.0,96,0.00,,,0.00,,2013-04-16 13:22:00,
2013-04-16 08:32:00,32.0,30.0,-100.00,NNW,345,6.0,9.0,96,0.00,,,0.00,,2013-04-16 13:32:00,
2013-04-16 08:42:00,32.0,32.0,-100.00,North,0,4.0,7.0,96,0.00,,,0.00,,2013-04-16 13:42:00,
2013-04-16 08:52:00,32.0,32.0,-100.00,North,355,6.0,7.0,96,0.00,,,0.00,,2013-04-16 13:52:00,
2013-04-16 09:02:00,33.0,32.0,-100.00,North,0,6.0,7.0,96,0.00,,,0.00,,2013-04-16 14:02:00,
2013-04-16 09:12:00,33.0,32.0,-100.00,North,0,6.0,7.0,95,0.00,,,0.00,,2013-04-16 14:12:00,
2013-04-16 09:22:00,34.0,32.0,-100.00,NNE,15,6.0,9.0,93,0.00,,,0.00,,2013-04-16 14:22:00,
2013-04-16 09:32:00,34.0,32.0,-100.00,North,350,6.0,8.0,93,0.00,,,0.00,,2013-04-16 14:32:00,
2013-04-16 09:42:00,32.0,30.0,-100.00,North,355,6.0,12.0,94,0.00,,,0.00,,2013-04-16 14:42:00,
2013-04-16 09:52:00,33.0,32.0,-100.00,NNW,340,8.0,9.0,95,0.00,,,0.00,,2013-04-16 14:52:00,
2013-04-16 10:02:00,33.0,32.0,-100.00,NNW,340,7.0,12.0,95,0.00,,,0.00,,2013-04-16 15:02:00,
2013-04-16 10:12:00,34.0,32.0,-100.00,North,355,12.0,16.0,93,0.00,,,0.00,,2013-04-16 15:12:00,
2013-04-16 10:22:00,34.0,32.0,-100.00,North,0,9.0,12.0,94,0.00,,,0.00,,2013-04-16 15:22:00,
2013-04-16 10:32:00,33.0,32.0,-100.00,North,350,12.0,14.0,94,0.00,,,0.00,,2013-04-16 15:32:00,
2013-04-16 10:43:00,34.0,34.0,-100.00,North,0,11.0,15.0,94,0.00,,,0.00,,2013-04-16 15:43:00,
2013-04-16 10:52:00,35.0,34.0,-100.00,North,5,11.0,14.0,94,0.00,,,0.00,,2013-04-16 15:52:00,
2013-04-16 11:03:00,35.0,34.0,-100.00,North,0,9.0,14.0,93,0.00,,,0.00,,2013-04-16 16:03:00,
2013-04-16 11:13:00,35.0,34.0,-100.00,North,0,9.0,12.0,93,0.00,,,0.00,,2013-04-16 16:13:00,
2013-04-16 11:23:00,36.0,34.0,-100.00,North,0,8.0,14.0,92,0.00,,,0.00,,2013-04-16 16:23:00,
2013-04-16 11:32:00,36.0,34.0,-100.00,North,0,9.0,14.0,92,0.00,,,0.00,,2013-04-16 16:32:00,
2013-04-16 11:42:00,37.0,36.0,-100.00,North,0,4.0,14.0,92,0.00,,,0.00,,2013-04-16 16:42:00,
2013-04-16 11:52:00,37.0,36.0,-100.00,NNE,20,7.0,11.0,91,0.00,,,0.00,,2013-04-16 16:52:00,
2013-04-16 12:02:00,35.0,34.0,-100.00,NNW,335,10.0,14.0,92,0.00,,,0.00,,2013-04-16 17:02:00,
2013-04-16 12:12:00,36.0,34.0,-100.00,NNW,335,9.0,13.0,92,0.00,,,0.00,,2013-04-16 17:12:00,
2013-04-16 12:22:00,38.0,36.0,-100.00,North,10,9.0,14.0,92,0.00,,,0.00,,2013-04-16 17:22:00,
2013-04-16 12:32:00,38.0,36.0,-100.00,NNE,20,7.0,12.0,88,0.00,,,0.00,,2013-04-16 17:32:00,
2013-04-16 12:43:00,38.0,36.0,-100.00,North,355,6.0,12.0,87,0.00,,,0.00,,2013-04-16 17:43:00,
2013-04-16 12:52:00,38.0,36.0,-100.00,North,0,7.0,11.0,91,0.00,,,0.00,,2013-04-16 17:52:00,
2013-04-16 13:02:00,37.0,34.0,-100.00,NNW,345,11.0,12.0,89,0.00,,,0.00,,2013-04-16 18:02:00,
2013-04-16 13:12:00,38.0,36.0,-100.00,North,350,7.0,12.0,88,0.00,,,0.00,,2013-04-16 18:12:00,
2013-04-16 13:22:00,41.0,37.0,-100.00,North,0,5.0,12.0,86,0.00,,,0.00,,2013-04-16 18:22:00,
2013-04-16 13:32:00,40.0,37.0,-100.00,North,0,7.0,12.0,87,0.00,,,0.00,,2013-04-16 18:32:00,
2013-04-16 13:42:00,41.0,37.0,-100.00,North,5,7.0,11.0,86,0.00,,,0.00,,2013-04-16 18:42:00,
2013-04-16 13:52:00,40.0,37.0,-100.00,NNE,20,9.0,14.0,86,0.00,,,0.00,,2013-04-16 18:52:00,
2013-04-16 14:02:00,40.0,37.0,-100.00,NNE,30,8.0,12.0,87,0.00,,,0.00,,2013-04-16 19:02:00,
2013-04-16 14:12:00,42.0,37.0,-100.00,NE,35,7.0,13.0,86,0.00,,,0.00,,2013-04-16 19:12:00,
2013-04-16 14:22:00,42.0,37.0,-100.00,North,355,7.0,15.0,83,0.00,,,0.00,,2013-04-16 19:22:00,
2013-04-16 14:32:00,42.0,37.0,-100.00,NNE,30,9.0,12.0,85,0.00,,,0.00,,2013-04-16 19:32:00,
2013-04-16 14:42:00,41.0,37.0,-100.00,North,0,9.0,14.0,83,0.00,,,0.00,,2013-04-16 19:42:00,
2013-04-16 14:52:00,42.0,37.0,-100.00,North,0,12.0,15.0,85,0.00,,,0.00,,2013-04-16 19:52:00,
2013-04-16 15:02:00,42.0,37.0,-100.00,NNE,20,9.0,14.0,84,0.00,,,0.00,,2013-04-16 20:02:00,
2013-04-16 15:12:00,41.0,36.0,-100.00,North,0,8.0,14.0,83,0.00,,,0.00,,2013-04-16 20:12:00,
2013-04-16 15:22:00,42.0,37.0,-100.00,North,10,5.0,14.0,84,0.00,,,0.00,,2013-04-16 20:22:00,
2013-04-16 15:32:00,42.0,37.0,-100.00,NNE,20,11.0,15.0,81,0.00,,,0.00,,2013-04-16 20:32:00,
2013-04-16 15:42:00,42.0,37.0,-100.00,North,355,13.0,15.0,81,0.00,,,0.00,,2013-04-16 20:42:00,
2013-04-16 15:52:00,43.0,37.0,-100.00,NNE,20,9.0,14.0,80,0.00,,,0.00,,2013-04-16 20:52:00,
2013-04-16 16:02:00,44.0,37.0,-100.00,North,5,9.0,14.0,78,0.00,,,0.00,,2013-04-16 21:02:00,
2013-04-16 16:12:00,44.0,37.0,-100.00,NNE,25,10.0,14.0,78,0.00,,,0.00,,2013-04-16 21:12:00,
2013-04-16 16:22:00,42.0,36.0,-100.00,North,0,9.0,13.0,78,0.00,,,0.00,,2013-04-16 21:22:00,
2013-04-16 16:32:00,43.0,36.0,-100.00,NNE,15,9.0,14.0,73,0.00,,,0.00,,2013-04-16 21:32:00,
2013-04-16 16:43:00,44.0,36.0,-100.00,NNE,15,7.0,12.0,72,0.00,,,0.00,,2013-04-16 21:43:00,
2013-04-16 16:52:00,42.0,34.0,-100.00,North,355,9.0,13.0,72,0.00,,,0.00,,2013-04-16 21:52:00,
2013-04-16 17:02:00,43.0,36.0,-100.00,North,0,7.0,12.0,71,0.00,,,0.00,,2013-04-16 22:02:00,
2013-04-16 17:13:00,44.0,36.0,-100.00,NNE,15,9.0,13.0,71,0.00,,,0.00,,2013-04-16 22:13:00,
2013-04-16 17:22:00,44.0,36.0,-100.00,North,10,8.0,13.0,69,0.00,,,0.00,,2013-04-16 22:22:00,
2013-04-16 17:32:00,43.0,34.0,-100.00,NNE,25,7.0,14.0,70,0.00,,,0.00,,2013-04-16 22:32:00,
2013-04-16 17:42:00,43.0,34.0,-100.00,NNE,20,8.0,15.0,71,0.00,,,0.00,,2013-04-16 22:42:00,
2013-04-16 17:52:00,43.0,36.0,-100.00,NNE,25,11.0,16.0,74,0.00,,,0.00,,2013-04-16 22:52:00,
2013-04-16 18:02:00,42.0,36.0,-100.00,NNE,20,12.0,16.0,77,0.00,,,0.00,,2013-04-16 23:02:00,
2013-04-16 18:12:00,42.0,36.0,-100.00,NE,45,12.0,17.0,78,0.00,,,0.00,,2013-04-16 23:12:00,
2013-04-16 18:22:00,41.0,36.0,-100.00,NNE,30,15.0,18.0,78,0.00,,,0.00,,2013-04-16 23:22:00,
2013-04-16 18:32:00,41.0,34.0,-100.00,NE,45,12.0,16.0,78,0.00,,,0.00,,2013-04-16 23:32:00,
2013-04-16 18:42:00,41.0,36.0,-100.00,NE,35,11.0,16.0,82,0.00,,,0.00,,2013-04-16 23:42:00,
2013-04-16 18:52:00,40.0,36.0,-100.00,NNE,30,11.0,17.0,86,0.00,,,0.00,,2013-04-16 23:52:00,
2013-04-16 19:02:00,40.0,36.0,-100.00,NNE,20,13.0,16.0,86,0.00,,,0.00,,2013-04-17 00:02:00,
2013-04-16 19:12:00,40.0,36.0,-100.00,NNE,20,11.0,17.0,87,0.00,,,0.00,,2013-04-17 00:12:00,
2013-04-16 19:22:00,39.0,36.0,-100.00,NE,35,9.0,12.0,90,0.00,,,0.00,,2013-04-17 00:22:00,
2013-04-16 19:32:00,38.0,36.0,-100.00,NNE,25,10.0,13.0,92,0.00,,,0.00,,2013-04-17 00:32:00,
2013-04-16 19:42:00,37.0,36.0,-100.00,NNE,30,10.0,13.0,93,0.00,,,0.00,,2013-04-17 00:42:00,
2013-04-16 19:52:00,36.0,36.0,-100.00,NNE,20,11.0,14.0,95,0.00,,,0.00,,2013-04-17 00:52:00,
2013-04-16 20:02:00,36.0,36.0,-100.00,NNE,20,10.0,12.0,97,0.00,,,0.00,,2013-04-17 01:02:00,
2013-04-16 20:12:00,35.0,34.0,-100.00,NNE,15,11.0,13.0,97,0.00,,,0.00,,2013-04-17 01:12:00,
2013-04-16 20:22:00,34.0,34.0,-100.00,NNE,25,10.0,12.0,99,0.00,,,0.00,,2013-04-17 01:22:00,
2013-04-16 20:32:00,34.0,34.0,-100.00,NNE,15,10.0,13.0,99,0.00,,,0.00,,2013-04-17 01:32:00,
2013-04-16 23:42:00,33.0,32.0,-100.00,NE,40,11.0,13.0,99,0.00,,,0.00,,2013-04-17 04:42:00,